Simultaneous Nadir Overpasses (SNOs) Predictions

Prediction of SNOs between AQUA and GOES-15 Satellite Orbit:

Table of predicted SNOs for the next 14.0 days since TLE Epoch: 6/26/2021
Index Date Time (AQUA) AQUA Lat,Lon GOES-15 Lat,Lon Distance(km) Time Diff (sec)
1 06/26/2021 22:03:58 0.25,-127.17 -0.00,-128.27 125.38 80
2 06/27/2021 10:25:14 0.83,-132.33 -0.01,-128.35 453.03 80
3 06/28/2021 21:51:46 0.87,-124.21 -0.01,-128.23 457.93 80
4 06/29/2021 10:13:02 0.21,-129.37 -0.00,-128.31 120.58 80
5 07/01/2021 10:00:50 -0.41,-126.41 0.00,-128.27 211.91 80
6 07/01/2021 22:22:13 -0.74,-131.59 0.01,-128.17 389.28 80
7 07/03/2021 22:10:01 -0.11,-128.63 0.01,-128.13 57.15 80
8 07/05/2021 21:57:49 0.53,-125.67 0.01,-128.08 274.33 80
9 07/06/2021 10:19:05 0.55,-130.83 -0.03,-128.16 303.87 80
10 07/08/2021 10:06:53 -0.09,-127.88 -0.03,-128.11 26.75 80
